^^
Your Local Weather - Clay, NY Station Historical Data
Daily Summary for February 25, 2018 Units:  English    Metric   Both
« Previous Day
Next Day »
Daily Weekly Monthly Yearly Custom
  High: Low: Average:
Temperature: 49.2 °F 33.3 °F 39.4 °F
Dew Point: 45.8 °F 29.4 °F 35.9 °F
Humidity: 93% 72% 87%
Wind Speed: 8.0mph 0.0mph 2.6mph
Wind Gust: 17.0mph - -
Wind- - ESE
Pressure: 30.13 in 29.77 in -
Precipitation: 0.38 in    
Historical Graphs
 
 
Tabular Data for February 25, 2018
Time Temperature Dew Point Pressure Wind Wind Speed Wind Gust Humidity Rainfall Rate (Hourly) solar
00:04 33.3 °F 29.6 °F 30.13 in ENE 1.0 mph 3.0 mph 86% 0.00 in 0 W/m2
00:10 33.4 °F 29.7 °F 30.12 in ENE 1.0 mph 1.0 mph 86% 0.00 in 0 W/m2
00:16 33.5 °F 29.5 °F 30.12 in ENE 1.0 mph 2.0 mph 85% 0.00 in 0 W/m2
00:22 33.7 °F 29.7 °F 30.13 in East 1.0 mph 3.0 mph 85% 0.00 in 0 W/m2
00:28 33.7 °F 29.7 °F 30.12 in East 1.0 mph 3.0 mph 85% 0.00 in 0 W/m2
00:34 33.8 °F 29.5 °F 30.13 in East 1.0 mph 2.0 mph 84% 0.00 in 0 W/m2
00:40 33.9 °F 29.6 °F 30.13 in ENE 2.0 mph 2.0 mph 84% 0.00 in 0 W/m2
00:46 33.9 °F 29.6 °F 30.13 in ENE 1.0 mph 2.0 mph 84% 0.00 in 0 W/m2
00:52 33.9 °F 29.6 °F 30.13 in ENE 1.0 mph 2.0 mph 84% 0.00 in 0 W/m2
00:58 34.0 °F 29.7 °F 30.12 in East 2.0 mph 6.0 mph 84% 0.00 in 0 W/m2
01:04 34.0 °F 29.7 °F 30.12 in NE 3.0 mph 4.0 mph 84% 0.00 in 0 W/m2
01:10 34.0 °F 29.4 °F 30.11 in ENE 2.0 mph 3.0 mph 83% 0.00 in 0 W/m2
01:16 34.0 °F 29.4 °F 30.10 in NE 2.0 mph 3.0 mph 83% 0.00 in 0 W/m2
01:22 34.0 °F 29.4 °F 30.10 in ENE 2.0 mph 3.0 mph 83% 0.00 in 0 W/m2
01:28 34.1 °F 29.5 °F 30.10 in ENE 2.0 mph 3.0 mph 83% 0.00 in 0 W/m2
01:34 34.1 °F 29.5 °F 30.10 in East 2.0 mph 8.0 mph 83% 0.00 in 0 W/m2
01:40 34.2 °F 29.6 °F 30.09 in ENE 5.0 mph 8.0 mph 83% 0.00 in 0 W/m2
01:46 34.2 °F 29.6 °F 30.08 in East 5.0 mph 9.0 mph 83% 0.00 in 0 W/m2
01:52 34.3 °F 29.7 °F 30.08 in ENE 4.0 mph 6.0 mph 83% 0.00 in 0 W/m2
01:58 34.2 °F 29.6 °F 30.08 in East 5.0 mph 6.0 mph 83% 0.00 in 0 W/m2
02:04 34.2 °F 29.6 °F 30.07 in East 4.0 mph 6.0 mph 83% 0.00 in 0 W/m2
02:10 34.3 °F 29.7 °F 30.07 in ESE 4.0 mph 4.0 mph 83% 0.00 in 0 W/m2
02:16 34.3 °F 30.0 °F 30.07 in ESE 4.0 mph 5.0 mph 84% 0.00 in 0 W/m2
02:22 34.3 °F 30.0 °F 30.06 in ESE 3.0 mph 3.0 mph 84% 0.00 in 0 W/m2
02:28 34.3 °F 30.3 °F 30.05 in East 3.0 mph 7.0 mph 85% 0.00 in 0 W/m2
02:34 34.4 °F 30.4 °F 30.05 in ENE 4.0 mph 4.0 mph 85% 0.00 in 0 W/m2
02:40 34.4 °F 30.6 °F 30.04 in East 3.0 mph 3.0 mph 86% 0.00 in 0 W/m2
02:46 34.4 °F 30.6 °F 30.03 in East 4.0 mph 4.0 mph 86% 0.00 in 0 W/m2
02:52 34.4 °F 30.9 °F 30.03 in NE 3.0 mph 3.0 mph 87% 0.00 in 0 W/m2
02:58 34.5 °F 31.0 °F 30.02 in SE 4.0 mph 5.0 mph 87% 0.00 in 0 W/m2
03:04 34.5 °F 31.0 °F 30.01 in ENE 4.0 mph 7.0 mph 87% 0.06 in 0 W/m2
03:10 34.6 °F 31.1 °F 30.00 in East 5.0 mph 7.0 mph 87% 0.06 in 0 W/m2
03:16 34.7 °F 31.5 °F 29.99 in ESE 5.0 mph 7.0 mph 88% 0.05 in 0 W/m2
03:22 34.7 °F 31.5 °F 29.99 in ENE 4.0 mph 9.0 mph 88% 0.00 in 0 W/m2
03:28 34.7 °F 31.5 °F 29.97 in East 5.0 mph 9.0 mph 88% 0.00 in 0 W/m2
03:34 34.6 °F 31.4 °F 29.96 in NE 5.0 mph 7.0 mph 88% 0.06 in 0 W/m2
03:40 34.6 °F 31.4 °F 29.94 in ESE 6.0 mph 6.0 mph 88% 0.06 in 0 W/m2
03:46 34.6 °F 31.4 °F 29.94 in East 7.0 mph 7.0 mph 88% 0.05 in 0 W/m2
03:52 34.5 °F 31.6 °F 29.96 in East 7.0 mph 7.0 mph 89% 0.00 in 0 W/m2
03:58 34.6 °F 31.7 °F 29.99 in SE 5.0 mph 7.0 mph 89% 0.00 in 0 W/m2
04:04 34.6 °F 31.7 °F 29.97 in ENE 4.0 mph 4.0 mph 89% 0.07 in 0 W/m2
04:10 34.6 °F 31.7 °F 29.97 in ESE 3.0 mph 4.0 mph 89% 0.08 in 0 W/m2
04:16 34.5 °F 31.6 °F 29.96 in ENE 4.0 mph 9.0 mph 89% 0.07 in 0 W/m2
04:22 34.5 °F 31.6 °F 29.96 in ESE 4.0 mph 4.0 mph 89% 0.04 in 0 W/m2
04:28 34.4 °F 31.8 °F 29.94 in East 4.0 mph 5.0 mph 90% 0.00 in 0 W/m2
04:34 34.4 °F 31.8 °F 29.94 in East 6.0 mph 7.0 mph 90% 0.00 in 0 W/m2
04:40 34.4 °F 31.8 °F 29.93 in SE 6.0 mph 6.0 mph 90% 0.04 in 0 W/m2
04:46 34.3 °F 31.7 °F 29.93 in East 5.0 mph 9.0 mph 90% 0.04 in 0 W/m2
04:52 34.3 °F 31.7 °F 29.92 in East 5.0 mph 7.0 mph 90% 0.04 in 0 W/m2
04:58 34.3 °F 31.7 °F 29.92 in NE 6.0 mph 8.0 mph 90% 0.00 in 0 W/m2
05:04 34.2 °F 31.6 °F 29.93 in ENE 5.0 mph 7.0 mph 90% 0.00 in 0 W/m2
05:10 34.2 °F 31.6 °F 29.92 in East 3.0 mph 7.0 mph 90% 0.00 in 0 W/m2
05:16 34.2 °F 31.6 °F 29.91 in ENE 4.0 mph 10.0 mph 90% 0.05 in 0 W/m2
05:22 34.1 °F 31.7 °F 29.91 in ESE 6.0 mph 7.0 mph 91% 0.10 in 0 W/m2
05:28 34.0 °F 31.6 °F 29.90 in ENE 6.0 mph 10.0 mph 91% 0.09 in 0 W/m2
05:34 33.9 °F 31.6 °F 29.89 in ENE 6.0 mph 8.0 mph 91% 0.10 in 0 W/m2
05:40 33.7 °F 31.4 °F 29.89 in ENE 5.0 mph 5.0 mph 91% 0.10 in 0 W/m2
05:46 33.6 °F 31.3 °F 29.88 in ENE 4.0 mph 5.0 mph 91% 0.13 in 0 W/m2
05:52 33.6 °F 31.3 °F 29.87 in ENE 5.0 mph 8.0 mph 91% 0.17 in 0 W/m2
05:58 33.6 °F 31.3 °F 29.86 in ENE 5.0 mph 8.0 mph 91% 0.08 in 0 W/m2
06:04 33.6 °F 31.5 °F 29.85 in ESE 6.0 mph 9.0 mph 92% 0.08 in 0 W/m2
06:10 33.6 °F 31.5 °F 29.85 in ENE 6.0 mph 6.0 mph 92% 0.07 in 0 W/m2
06:16 33.6 °F 31.5 °F 29.84 in East 6.0 mph 10.0 mph 92% 0.07 in 0 W/m2
06:22 33.6 °F 31.5 °F 29.84 in East 5.0 mph 5.0 mph 92% 0.07 in 0 W/m2
06:28 33.6 °F 31.5 °F 29.83 in East 6.0 mph 6.0 mph 92% 0.08 in 0 W/m2
06:34 33.6 °F 31.5 °F 29.83 in East 5.0 mph 5.0 mph 92% 0.08 in 0 W/m2
06:40 33.6 °F 31.5 °F 29.82 in SSE 5.0 mph 5.0 mph 92% 0.07 in 0 W/m2
06:46 33.7 °F 31.6 °F 29.81 in ENE 5.0 mph 5.0 mph 92% 0.06 in 0 W/m2
06:52 33.7 °F 31.6 °F 29.81 in East 4.0 mph 8.0 mph 92% 0.11 in 0 W/m2
06:58 33.8 °F 31.7 °F 29.80 in East 4.0 mph 9.0 mph 92% 0.09 in 0 W/m2
07:04 33.8 °F 31.7 °F 29.80 in East 5.0 mph 5.0 mph 92% 0.05 in 0 W/m2
07:10 34.0 °F 31.9 °F 29.80 in East 5.0 mph 5.0 mph 92% 0.05 in 0 W/m2
07:16 34.1 °F 32.3 °F 29.79 in East 5.0 mph 7.0 mph 93% 0.07 in 0 W/m2
07:22 34.1 °F 32.3 °F 29.79 in SE 4.0 mph 7.0 mph 93% 0.06 in 7 W/m2
07:28 34.2 °F 32.4 °F 29.80 in NE 4.0 mph 8.0 mph 93% 0.05 in 5 W/m2
07:34 34.2 °F 32.4 °F 29.79 in ENE 4.0 mph 5.0 mph 93% 0.09 in 7 W/m2
07:40 34.4 °F 32.6 °F 29.79 in ENE 4.0 mph 4.0 mph 93% 0.16 in 5 W/m2
07:46 34.6 °F 32.8 °F 29.80 in East 4.0 mph 4.0 mph 93% 0.13 in 9 W/m2
07:52 34.7 °F 32.9 °F 29.81 in East 4.0 mph 5.0 mph 93% 0.16 in 5 W/m2
07:58 34.9 °F 33.1 °F 29.82 in East 4.0 mph 6.0 mph 93% 0.13 in 5 W/m2
08:04 35.2 °F 33.4 °F 29.81 in ENE 4.0 mph 7.0 mph 93% 0.06 in 5 W/m2
08:10 35.4 °F 33.6 °F 29.82 in ENE 3.0 mph 4.0 mph 93% 0.05 in 7 W/m2
08:16 35.8 °F 34.0 °F 29.80 in East 2.0 mph 4.0 mph 93% 0.05 in 9 W/m2
08:22 35.6 °F 33.8 °F 29.80 in East 3.0 mph 9.0 mph 93% 0.04 in 9 W/m2
08:28 35.5 °F 33.7 °F 29.79 in ESE 5.0 mph 9.0 mph 93% 0.00 in 18 W/m2
08:34 35.6 °F 33.8 °F 29.79 in NE 4.0 mph 5.0 mph 93% 0.00 in 18 W/m2
08:40 35.7 °F 33.9 °F 29.79 in East 2.0 mph 3.0 mph 93% 0.00 in 18 W/m2
08:46 36.1 °F 34.3 °F 29.78 in ENE 2.0 mph 3.0 mph 93% 0.00 in 18 W/m2
08:52 36.6 °F 34.8 °F 29.79 in East 2.0 mph 3.0 mph 93% 0.00 in 21 W/m2
08:58 36.8 °F 35.0 °F 29.78 in NE 1.0 mph 3.0 mph 93% 0.00 in 26 W/m2
09:04 36.9 °F 35.1 °F 29.78 in ENE 2.0 mph 4.0 mph 93% 0.00 in 42 W/m2
09:10 36.7 °F 34.9 °F 29.77 in East 3.0 mph 3.0 mph 93% 0.00 in 54 W/m2
09:16 36.8 °F 35.0 °F 29.77 in East 3.0 mph 5.0 mph 93% 0.00 in 42 W/m2
09:22 37.2 °F 35.4 °F 29.77 in East 3.0 mph 5.0 mph 93% 0.00 in 25 W/m2
09:28 37.6 °F 35.8 °F 29.78 in ENE 2.0 mph 5.0 mph 93% 0.00 in 16 W/m2
09:34 38.3 °F 36.5 °F 29.78 in SE 1.0 mph 4.0 mph 93% 0.00 in 28 W/m2
09:46 40.5 °F 38.6 °F 29.78 in SE 3.0 mph 3.0 mph 93% 0.00 in 42 W/m2
09:52 41.9 °F 40.0 °F 29.78 in SSE 4.0 mph 5.0 mph 93% 0.00 in 49 W/m2
09:58 42.4 °F 40.5 °F 29.77 in SE 4.0 mph 5.0 mph 93% 0.00 in 58 W/m2
10:04 42.8 °F 40.9 °F 29.77 in SE 4.0 mph 10.0 mph 93% 0.00 in 35 W/m2
10:10 43.2 °F 41.0 °F 29.77 in SSE 4.0 mph 4.0 mph 92% 0.00 in 32 W/m2
10:16 43.3 °F 40.8 °F 29.77 in SE 4.0 mph 5.0 mph 91% 0.00 in 35 W/m2
10:22 43.7 °F 41.0 °F 29.77 in SE 5.0 mph 13.0 mph 90% 0.00 in 18 W/m2
10:28 44.4 °F 41.1 °F 29.77 in SE 6.0 mph 13.0 mph 88% 0.00 in 23 W/m2
10:34 44.7 °F 40.8 °F 29.77 in ESE 6.0 mph 7.0 mph 86% 0.00 in 21 W/m2
10:40 45.0 °F 40.8 °F 29.77 in SSE 6.0 mph 6.0 mph 85% 0.00 in 23 W/m2
10:46 45.1 °F 40.6 °F 29.77 in SSE 5.0 mph 6.0 mph 84% 0.00 in 26 W/m2
10:52 45.3 °F 40.4 °F 29.77 in SSE 5.0 mph 7.0 mph 83% 0.00 in 32 W/m2
10:58 45.4 °F 40.5 °F 29.77 in SE 6.0 mph 8.0 mph 83% 0.00 in 30 W/m2
11:04 45.7 °F 40.5 °F 29.77 in SE 6.0 mph 6.0 mph 82% 0.00 in 44 W/m2
11:10 45.7 °F 40.5 °F 29.77 in South 4.0 mph 4.0 mph 82% 0.00 in 37 W/m2
11:16 45.7 °F 40.5 °F 29.77 in SSE 4.0 mph 9.0 mph 82% 0.00 in 49 W/m2
11:22 45.9 °F 40.4 °F 29.77 in South 4.0 mph 9.0 mph 81% 0.00 in 33 W/m2
11:28 45.9 °F 40.4 °F 29.77 in SSE 4.0 mph 10.0 mph 81% 0.00 in 32 W/m2
11:34 46.2 °F 40.4 °F 29.77 in SSE 7.0 mph 12.0 mph 80% 0.00 in 39 W/m2
11:40 46.3 °F 40.5 °F 29.78 in SSE 7.0 mph 7.0 mph 80% 0.00 in 42 W/m2
11:46 46.5 °F 40.3 °F 29.78 in SSE 8.0 mph 17.0 mph 79% 0.00 in 33 W/m2
11:52 46.4 °F 40.6 °F 29.78 in SSE 8.0 mph 8.0 mph 80% 0.00 in 25 W/m2
11:59 46.5 °F 40.3 °F 29.78 in South 6.0 mph 13.0 mph 79% 0.00 in 37 W/m2
12:04 46.6 °F 40.4 °F 29.78 in ESE 6.0 mph 6.0 mph 79% 0.00 in 56 W/m2
12:10 46.6 °F 40.8 °F 29.80 in ESE 3.0 mph 3.0 mph 80% 0.00 in 33 W/m2
12:16 46.5 °F 40.7 °F 29.80 in SSE 1.0 mph 5.0 mph 80% 0.00 in 37 W/m2
12:22 46.5 °F 40.7 °F 29.81 in SSW 2.0 mph 2.0 mph 80% 0.00 in 42 W/m2
12:28 46.3 °F 41.1 °F 29.81 in SSW 1.0 mph 3.0 mph 82% 0.00 in 65 W/m2
12:34 46.2 °F 41.3 °F 29.82 in SE 2.0 mph 5.0 mph 83% 0.00 in 67 W/m2
12:40 46.2 °F 41.6 °F 29.82 in SSE 2.0 mph 6.0 mph 84% 0.00 in 53 W/m2
12:46 46.2 °F 41.9 °F 29.82 in SSW 3.0 mph 6.0 mph 85% 0.00 in 53 W/m2
12:58 45.8 °F 41.9 °F 29.82 in SSE 2.0 mph 4.0 mph 86% 0.00 in 39 W/m2
13:04 45.8 °F 41.9 °F 29.81 in SSE 1.0 mph 2.0 mph 86% 0.00 in 79 W/m2
13:10 45.8 °F 42.2 °F 29.80 in SSE 1.0 mph 1.0 mph 87% 0.00 in 120 W/m2
13:16 46.0 °F 42.6 °F 29.79 in ESE 1.0 mph 4.0 mph 88% 0.00 in 102 W/m2
13:22 44.5 °F 41.2 °F 29.78 in ENE 3.0 mph 3.0 mph 88% 0.00 in 141 W/m2
13:28 44.2 °F 41.2 °F 29.79 in ESE 2.0 mph 3.0 mph 89% 0.00 in 70 W/m2
13:34 44.1 °F 41.4 °F 29.79 in NE 2.0 mph 5.0 mph 90% 0.00 in 72 W/m2
13:40 44.3 °F 41.6 °F 29.79 in ENE 3.0 mph 3.0 mph 90% 0.00 in 105 W/m2
13:46 44.4 °F 41.7 °F 29.79 in ENE 2.0 mph 3.0 mph 90% 0.00 in 148 W/m2
13:52 44.7 °F 42.2 °F 29.79 in ENE 2.0 mph 4.0 mph 91% 0.00 in 171 W/m2
13:58 44.8 °F 42.3 °F 29.79 in ENE 3.0 mph 4.0 mph 91% 0.00 in 267 W/m2
14:04 45.0 °F 42.5 °F 29.79 in ENE 3.0 mph 5.0 mph 91% 0.00 in 214 W/m2
14:10 45.1 °F 42.6 °F 29.78 in ENE 3.0 mph 5.0 mph 91% 0.00 in 199 W/m2
14:16 45.3 °F 42.8 °F 29.78 in NE 3.0 mph 5.0 mph 91% 0.00 in 308 W/m2
14:22 45.6 °F 43.1 °F 29.78 in ENE 2.0 mph 3.0 mph 91% 0.00 in 229 W/m2
14:28 45.8 °F 43.3 °F 29.78 in ENE 2.0 mph 3.0 mph 91% 0.00 in 214 W/m2
14:34 46.4 °F 43.9 °F 29.79 in East 2.0 mph 3.0 mph 91% 0.00 in 294 W/m2
14:40 46.5 °F 43.7 °F 29.78 in East 2.0 mph 2.0 mph 90% 0.00 in 197 W/m2
14:46 47.4 °F 44.3 °F 29.79 in East 2.0 mph 3.0 mph 89% 0.00 in 237 W/m2
14:52 48.9 °F 45.8 °F 29.79 in East 1.0 mph 3.0 mph 89% 0.00 in 427 W/m2
14:58 49.2 °F 45.2 °F 29.80 in ENE 2.0 mph 5.0 mph 86% 0.00 in 165 W/m2
15:04 48.7 °F 44.4 °F 29.80 in ENE 2.0 mph 2.0 mph 85% 0.00 in 167 W/m2
15:10 48.2 °F 43.9 °F 29.80 in ENE 1.0 mph 3.0 mph 85% 0.00 in 158 W/m2
15:16 47.8 °F 43.8 °F 29.80 in ENE 2.0 mph 4.0 mph 86% 0.00 in 146 W/m2
15:22 47.7 °F 43.7 °F 29.80 in ENE 2.0 mph 2.0 mph 86% 0.00 in 163 W/m2
15:28 47.5 °F 43.5 °F 29.80 in ENE 2.0 mph 3.0 mph 86% 0.00 in 155 W/m2
15:34 47.4 °F 43.4 °F 29.80 in ENE 2.0 mph 4.0 mph 86% 0.00 in 151 W/m2
15:40 47.6 °F 43.9 °F 29.80 in ENE 1.0 mph 2.0 mph 87% 0.00 in 132 W/m2
15:46 47.8 °F 44.1 °F 29.80 in ENE 1.0 mph 2.0 mph 87% 0.00 in 120 W/m2
15:52 47.9 °F 44.2 °F 29.80 in ENE 1.0 mph 1.0 mph 87% 0.00 in 144 W/m2
15:58 47.8 °F 44.1 °F 29.80 in ENE 2.0 mph 3.0 mph 87% 0.00 in 283 W/m2
16:04 47.5 °F 43.8 °F 29.80 in ENE 2.0 mph 4.0 mph 87% 0.00 in 116 W/m2
16:10 47.4 °F 43.7 °F 29.80 in ENE 1.0 mph 2.0 mph 87% 0.00 in 79 W/m2
16:16 47.1 °F 43.4 °F 29.81 in ENE 2.0 mph 3.0 mph 87% 0.00 in 127 W/m2
16:22 46.8 °F 43.1 °F 29.81 in ENE 2.0 mph 2.0 mph 87% 0.00 in 100 W/m2
16:28 46.8 °F 43.1 °F 29.81 in Calm   2.0 mph 87% 0.00 in 97 W/m2
16:34 46.7 °F 43.0 °F 29.81 in Calm   2.0 mph 87% 0.00 in 98 W/m2
16:40 46.6 °F 42.9 °F 29.82 in Calm     87% 0.00 in 83 W/m2
16:46 46.2 °F 42.8 °F 29.82 in Calm   1.0 mph 88% 0.00 in 69 W/m2
16:52 46.0 °F 42.6 °F 29.83 in Calm   1.0 mph 88% 0.00 in 51 W/m2
16:58 46.0 °F 42.6 °F 29.83 in ENE 1.0 mph 2.0 mph 88% 0.00 in 65 W/m2
17:04 45.8 °F 42.4 °F 29.82 in ENE 1.0 mph 1.0 mph 88% 0.00 in 62 W/m2
17:10 45.8 °F 42.7 °F 29.83 in Calm   1.0 mph 89% 0.00 in 56 W/m2
17:16 45.4 °F 42.1 °F 29.83 in ENE 1.0 mph 1.0 mph 88% 0.00 in 33 W/m2
17:22 44.8 °F 41.5 °F 29.83 in ENE 1.0 mph 1.0 mph 88% 0.00 in 25 W/m2
17:28 44.4 °F 41.4 °F 29.83 in Calm   1.0 mph 89% 0.00 in 25 W/m2
17:34 44.1 °F 41.1 °F 29.83 in Calm     89% 0.00 in 21 W/m2
17:40 43.6 °F 40.6 °F 29.83 in Calm     89% 0.00 in 11 W/m2
17:46 43.0 °F 40.0 °F 29.83 in Calm     89% 0.00 in 5 W/m2
17:52 42.4 °F 39.4 °F 29.84 in Calm     89% 0.00 in 0 W/m2
17:58 41.9 °F 38.9 °F 29.85 in Calm     89% 0.00 in 0 W/m2
18:04 41.3 °F 38.3 °F 29.85 in Calm     89% 0.00 in 0 W/m2
18:10 40.8 °F 37.8 °F 29.85 in Calm     89% 0.00 in 0 W/m2
18:16 40.3 °F 37.3 °F 29.86 in Calm     89% 0.00 in 0 W/m2
18:22 39.9 °F 37.2 °F 29.86 in Calm     90% 0.00 in 0 W/m2
18:28 39.6 °F 36.9 °F 29.87 in Calm     90% 0.00 in 0 W/m2
18:34 39.4 °F 36.7 °F 29.87 in Calm     90% 0.00 in 0 W/m2
18:40 39.1 °F 36.4 °F 29.88 in Calm     90% 0.00 in 0 W/m2
18:46 38.9 °F 36.2 °F 29.88 in Calm     90% 0.00 in 0 W/m2
18:52 38.5 °F 35.8 °F 29.89 in Calm     90% 0.00 in 0 W/m2
18:58 38.3 °F 35.9 °F 29.89 in Calm   2.0 mph 91% 0.00 in 0 W/m2
19:04 38.1 °F 35.4 °F 29.89 in Calm     90% 0.00 in 0 W/m2
19:10 37.9 °F 35.5 °F 29.89 in Calm     91% 0.00 in 0 W/m2
19:16 37.8 °F 35.4 °F 29.89 in Calm     91% 0.00 in 0 W/m2
19:22 37.7 °F 35.3 °F 29.89 in ENE 1.0 mph 1.0 mph 91% 0.00 in 0 W/m2
19:28 37.6 °F 35.2 °F 29.89 in Calm   1.0 mph 91% 0.00 in 0 W/m2
19:34 37.5 °F 35.1 °F 29.89 in Calm     91% 0.00 in 0 W/m2
19:40 37.3 °F 34.9 °F 29.90 in Calm     91% 0.00 in 0 W/m2
19:46 37.2 °F 34.8 °F 29.90 in Calm     91% 0.00 in 0 W/m2
19:52 37.1 °F 35.0 °F 29.91 in Calm     92% 0.00 in 0 W/m2
19:58 37.4 °F 35.3 °F 29.91 in Calm     92% 0.00 in 0 W/m2
20:04 37.7 °F 35.6 °F 29.91 in Calm     92% 0.00 in 0 W/m2
20:10 37.9 °F 35.8 °F 29.90 in Calm     92% 0.00 in 0 W/m2
20:16 38.0 °F 35.9 °F 29.91 in Calm     92% 0.00 in 0 W/m2
20:22 37.9 °F 35.8 °F 29.91 in Calm     92% 0.00 in 0 W/m2
20:28 37.7 °F 35.6 °F 29.92 in Calm     92% 0.00 in 0 W/m2
20:34 37.6 °F 35.5 °F 29.92 in Calm     92% 0.00 in 0 W/m2
20:40 37.3 °F 35.2 °F 29.93 in Calm     92% 0.00 in 0 W/m2
20:46 36.9 °F 34.8 °F 29.94 in Calm     92% 0.00 in 0 W/m2
20:52 36.6 °F 34.5 °F 29.94 in Calm     92% 0.00 in 0 W/m2
20:58 36.4 °F 34.3 °F 29.94 in Calm     92% 0.00 in 0 W/m2
21:04 36.1 °F 34.0 °F 29.94 in Calm     92% 0.00 in 0 W/m2
21:10 36.2 °F 34.1 °F 29.94 in Calm     92% 0.00 in 0 W/m2
21:16 36.4 °F 34.3 °F 29.94 in Calm     92% 0.00 in 0 W/m2
21:22 37.0 °F 35.2 °F 29.95 in NW 1.0 mph 4.0 mph 93% 0.00 in 0 W/m2
21:28 37.7 °F 35.6 °F 29.95 in WNW 2.0 mph 4.0 mph 92% 0.00 in 0 W/m2
21:34 38.1 °F 36.0 °F 29.95 in WNW 1.0 mph 2.0 mph 92% 0.00 in 0 W/m2
21:40 38.5 °F 36.1 °F 29.95 in WNW 1.0 mph 1.0 mph 91% 0.00 in 0 W/m2
21:46 38.4 °F 35.7 °F 29.95 in Calm   1.0 mph 90% 0.00 in 0 W/m2
21:52 38.3 °F 35.1 °F 29.96 in Calm     88% 0.00 in 0 W/m2
21:58 38.7 °F 34.9 °F 29.95 in WNW 1.0 mph 1.0 mph 86% 0.00 in 0 W/m2
22:04 39.2 °F 34.5 °F 29.96 in WNW 1.0 mph 2.0 mph 83% 0.00 in 0 W/m2
22:10 39.4 °F 33.7 °F 29.96 in WNW 1.0 mph 1.0 mph 80% 0.00 in 0 W/m2
22:16 39.7 °F 33.4 °F 29.96 in WNW 1.0 mph 1.0 mph 78% 0.00 in 0 W/m2
22:22 39.8 °F 32.8 °F 29.97 in WNW 1.0 mph 2.0 mph 76% 0.00 in 0 W/m2
22:28 40.0 °F 32.4 °F 29.97 in NW 1.0 mph 4.0 mph 74% 0.00 in 0 W/m2
22:34 39.9 °F 31.9 °F 29.97 in WNW 1.0 mph 1.0 mph 73% 0.00 in 0 W/m2
22:40 39.8 °F 31.8 °F 29.98 in Calm   1.0 mph 73% 0.00 in 0 W/m2
22:46 39.6 °F 31.7 °F 29.97 in WNW 1.0 mph 3.0 mph 73% 0.00 in 0 W/m2
22:52 39.4 °F 31.8 °F 29.98 in WNW 1.0 mph 3.0 mph 74% 0.00 in 0 W/m2
22:58 39.3 °F 31.7 °F 29.97 in Calm   3.0 mph 74% 0.00 in 0 W/m2
23:04 39.1 °F 31.5 °F 29.97 in WNW 1.0 mph 2.0 mph 74% 0.00 in 0 W/m2
23:10 39.1 °F 31.5 °F 29.97 in WNW 1.0 mph 1.0 mph 74% 0.00 in 0 W/m2
23:16 39.3 °F 31.7 °F 29.97 in WSW 2.0 mph 5.0 mph 74% 0.00 in 0 W/m2
23:22 39.6 °F 31.7 °F 29.98 in West 3.0 mph 3.0 mph 73% 0.00 in 0 W/m2
23:28 39.7 °F 31.8 °F 29.98 in WNW 3.0 mph 3.0 mph 73% 0.00 in 0 W/m2
23:34 39.9 °F 31.9 °F 29.99 in WNW 3.0 mph 5.0 mph 73% 0.00 in 0 W/m2
23:40 40.0 °F 31.7 °F 29.99 in WNW 3.0 mph 3.0 mph 72% 0.00 in 0 W/m2
23:46 40.0 °F 31.7 °F 29.99 in WNW 3.0 mph 3.0 mph 72% 0.00 in 0 W/m2
23:52 39.8 °F 31.5 °F 29.99 in WSW 2.0 mph 2.0 mph 72% 0.00 in 0 W/m2
23:58 39.7 °F 31.4 °F 29.99 in WSW 2.0 mph 3.0 mph 72% 0.00 in 0 W/m2
Country Meadow, Clay, NY, USA
Compliments of Weather Underground - 2 mb